• în Republica Moldova
  • Lista ţărilor
  • Pe 7 zile
  • Temperatura apei
  • Hartă satelitară
  • Meteo pe hartă
  • Widget-uri
  • user-avatar
    Intrare

    Meteo pe oră la Saurimo

    Astăzi, 21 Ianuarie, Sâmbătă

    Timp Temperatura Precipitaţii Vânt Presiune Umiditate
    00:00 +21°C° 0 mm 1 m/s 669 mmHg 85%
    01:00 +21°C° 0 mm 1 m/s 669 mmHg 85%
    02:00 +21°C° 0,4 mm 1 m/s 669 mmHg 87%
    03:00 +20°C° 0,4 mm 1 m/s 669 mmHg 89%
    04:00 +20°C° 0,4 mm 1 m/s 668 mmHg 90%
    05:00 +21°C° 0 mm 1 m/s 669 mmHg 88%
    06:00 +22°C° 0 mm 1 m/s 670 mmHg 85%
    07:00 +21°C° 0 mm 0 m/s 670 mmHg 81%
    08:00 +25°C° 0,2 mm 1 m/s 671 mmHg 74%
    09:00 +27°C° 0,2 mm 1 m/s 671 mmHg 66%
    10:00 +29°C° 0,2 mm 1 m/s 671 mmHg 59%
    11:00 +30°C° 0,2 mm 1 m/s 671 mmHg 54%
    12:00 +31°C° 0,2 mm 2 m/s 670 mmHg 49%
    13:00 +32°C° 0,2 mm 2 m/s 670 mmHg 44%
    14:00 +31°C° 0,2 mm 2 m/s 670 mmHg 50%
    15:00 +30°C° 0,2 mm 2 m/s 669 mmHg 56%
    16:00 +29°C° 0,2 mm 2 m/s 669 mmHg 62%
    17:00 +27°C° 0,4 mm 1 m/s 668 mmHg 69%
    18:00 +25°C° 0,4 mm 1 m/s 668 mmHg 77%
    19:00 +23°C° 0,4 mm 1 m/s 668 mmHg 84%
    20:00 +23°C° 0,2 mm 1 m/s 668 mmHg 85%
    21:00 +23°C° 0,2 mm 1 m/s 669 mmHg 85%
    22:00 +22°C° 0,2 mm 1 m/s 669 mmHg 86%
    23:00 +22°C° 0,5 mm 1 m/s 669 mmHg 88%

    Mâine, 22 Ianuarie, Duminică

    Timp Temperatura Precipitaţii Vânt Presiune Umiditate
    00:00 +22°C° 0,5 mm 1 m/s 669 mmHg 89%
    01:00 +21°C° 0,5 mm 1 m/s 669 mmHg 91%
    02:00 +21°C° 1,2 mm 1 m/s 669 mmHg 92%
    03:00 +21°C° 1,2 mm 1 m/s 669 mmHg 94%
    04:00 +20°C° 1,2 mm 1 m/s 669 mmHg 95%
    05:00 +21°C° 0 mm 1 m/s 669 mmHg 94%
    06:00 +22°C° 0 mm 1 m/s 670 mmHg 92%
    07:00 +22°C° 0 mm 1 m/s 670 mmHg 91%
    08:00 +23°C° 0,1 mm 1 m/s 670 mmHg 85%
    09:00 +25°C° 0,1 mm 2 m/s 671 mmHg 80%
    10:00 +26°C° 0,1 mm 2 m/s 671 mmHg 74%
    11:00 +27°C° 0,1 mm 2 m/s 671 mmHg 70%
    12:00 +27°C° 0,1 mm 3 m/s 670 mmHg 66%
    13:00 +28°C° 0,1 mm 3 m/s 670 mmHg 61%
    14:00 +28°C° 0,2 mm 3 m/s 670 mmHg 64%
    15:00 +27°C° 0,2 mm 3 m/s 669 mmHg 67%
    16:00 +26°C° 0,2 mm 3 m/s 669 mmHg 70%
    17:00 +25°C° 0,4 mm 2 m/s 669 mmHg 75%
    18:00 +24°C° 0,4 mm 2 m/s 669 mmHg 80%
    19:00 +22°C° 0,4 mm 1 m/s 669 mmHg 85%
    20:00 +22°C° 0,2 mm 1 m/s 669 mmHg 86%
    21:00 +22°C° 0,2 mm 1 m/s 670 mmHg 87%
    22:00 +22°C° 0,2 mm 1 m/s 670 mmHg 88%
    23:00 +22°C° 0,5 mm 1 m/s 670 mmHg 89%

    Poimâine, 23 Ianuarie, Luni

    Timp Temperatura Precipitaţii Vânt Presiune Umiditate
    00:00 +21°C° 0,5 mm 1 m/s 669 mmHg 90%
    01:00 +21°C° 0,5 mm 1 m/s 669 mmHg 91%
    02:00 +21°C° 0,2 mm 1 m/s 669 mmHg 90%
    03:00 +21°C° 0,2 mm 1 m/s 669 mmHg 90%
    04:00 +21°C° 0,2 mm 1 m/s 668 mmHg 90%
    05:00 +21°C° 0,1 mm 1 m/s 669 mmHg 89%
    06:00 +22°C° 0,1 mm 1 m/s 670 mmHg 87%
    07:00 +22°C° 0,1 mm 1 m/s 670 mmHg 86%
    08:00 +23°C° 0,1 mm 1 m/s 670 mmHg 81%
    09:00 +24°C° 0,1 mm 1 m/s 671 mmHg 76%
    10:00 +26°C° 0,1 mm 1 m/s 671 mmHg 71%
    11:00 +27°C° 0 mm 2 m/s 671 mmHg 65%
    12:00 +28°C° 0 mm 2 m/s 670 mmHg 58%
    13:00 +29°C° 0 mm 2 m/s 670 mmHg 51%
    14:00 +29°C° 0,1 mm 2 m/s 669 mmHg 53%
    15:00 +29°C° 0,1 mm 2 m/s 669 mmHg 54%
    16:00 +29°C° 0,1 mm 3 m/s 669 mmHg 55%
    17:00 +27°C° 0,3 mm 3 m/s 669 mmHg 65%
    18:00 +25°C° 0,3 mm 3 m/s 669 mmHg 76%
    19:00 +23°C° 0,3 mm 2 m/s 669 mmHg 86%
    20:00 +21°C° 0 mm 2 m/s 670 mmHg 89%
    21:00 +21°C° 0 mm 2 m/s 670 mmHg 93%
    22:00 +20°C° 0 mm 2 m/s 671 mmHg 96%
    23:00 +20°C° 0 mm 2 m/s 670 mmHg 95%

    24 Ianuarie, Marţi

    Timp Temperatura Precipitaţii Vânt Presiune Umiditate
    00:00 +20°C° 0 mm 2 m/s 670 mmHg 93%
    01:00 +20°C° 0 mm 2 m/s 670 mmHg 92%
    02:00 +19°C° 0 mm 2 m/s 670 mmHg 90%
    03:00 +19°C° 0 mm 2 m/s 670 mmHg 89%
    04:00 +19°C° 0 mm 2 m/s 669 mmHg 88%
    05:00 +19°C° 0 mm 2 m/s 670 mmHg 88%
    06:00 +20°C° 0 mm 2 m/s 671 mmHg 88%
    07:00 +20°C° 0 mm 2 m/s 671 mmHg 89%
    08:00 +23°C° 0 mm 2 m/s 671 mmHg 80%
    09:00 +25°C° 0 mm 2 m/s 672 mmHg 71%
    10:00 +27°C° 0 mm 2 m/s 672 mmHg 63%
    11:00 +28°C° 0,1 mm 2 m/s 672 mmHg 57%
    12:00 +29°C° 0,1 mm 3 m/s 671 mmHg 50%
    13:00 +32°C° 0,1 mm 4 m/s 671 mmHg 44%
    14:00 +30°C° 0,1 mm 3 m/s 670 mmHg 47%
    15:00 +30°C° 0,1 mm 3 m/s 670 mmHg 50%
    16:00 +29°C° 0,1 mm 3 m/s 669 mmHg 54%
    17:00 +27°C° 0 mm 2 m/s 669 mmHg 60%
    18:00 +25°C° 0 mm 2 m/s 669 mmHg 67%
    19:00 +23°C° 0 mm 1 m/s 669 mmHg 74%
    20:00 +23°C° 0 mm 1 m/s 670 mmHg 75%
    21:00 +22°C° 0 mm 1 m/s 670 mmHg 76%
    22:00 +22°C° 0 mm 1 m/s 670 mmHg 78%
    23:00 +21°C° 0 mm 1 m/s 670 mmHg 79%

    25 Ianuarie, Miercuri

    Timp Temperatura Precipitaţii Vânt Presiune Umiditate
    00:00 +20°C° 0 mm 1 m/s 669 mmHg 81%
    01:00 +20°C° 0 mm 1 m/s 669 mmHg 83%
    02:00 +19°C° 0 mm 1 m/s 669 mmHg 84%
    03:00 +19°C° 0 mm 1 m/s 669 mmHg 86%
    04:00 +18°C° 0 mm 1 m/s 669 mmHg 88%
    05:00 +19°C° 0 mm 1 m/s 669 mmHg 85%
    06:00 +20°C° 0 mm 1 m/s 670 mmHg 82%
    07:00 +21°C° 0 mm 1 m/s 671 mmHg 78%
    08:00 +24°C° 0 mm 1 m/s 671 mmHg 68%
    09:00 +26°C° 0 mm 2 m/s 672 mmHg 58%
    10:00 +29°C° 0 mm 2 m/s 673 mmHg 48%
    11:00 +30°C° 0 mm 3 m/s 672 mmHg 44%
    12:00 +31°C° 0 mm 3 m/s 671 mmHg 41%
    13:00 +33°C° 0 mm 3 m/s 671 mmHg 37%
    14:00 +33°C° 0 mm 3 m/s 670 mmHg 39%
    15:00 +31°C° 0 mm 3 m/s 670 mmHg 42%
    16:00 +31°C° 0 mm 3 m/s 670 mmHg 44%
    17:00 +29°C° 0,1 mm 2 m/s 670 mmHg 53%
    18:00 +26°C° 0,1 mm 2 m/s 670 mmHg 61%
    19:00 +24°C° 0,1 mm 2 m/s 670 mmHg 69%
    20:00 +23°C° 0 mm 2 m/s 670 mmHg 72%
    21:00 +21°C° 0 mm 2 m/s 670 mmHg 75%
    22:00 +21°C° 0 mm 2 m/s 671 mmHg 78%
    23:00 +21°C° 0 mm 1 m/s 670 mmHg 79%

    26 Ianuarie, Joi

    Timp Temperatura Precipitaţii Vânt Presiune Umiditate
    00:00 +21°C° 0 mm 1 m/s 670 mmHg 81%
    01:00 +20°C° 0 mm 1 m/s 670 mmHg 83%
    02:00 +20°C° 0 mm 1 m/s 670 mmHg 84%
    03:00 +20°C° 0 mm 1 m/s 670 mmHg 85%
    04:00 +19°C° 0 mm 1 m/s 670 mmHg 86%
    05:00 +20°C° 0 mm 1 m/s 670 mmHg 83%
    06:00 +21°C° 0 mm 1 m/s 671 mmHg 81%
    07:00 +22°C° 0 mm 1 m/s 671 mmHg 78%
    08:00 +24°C° 0 mm 2 m/s 672 mmHg 69%
    09:00 +27°C° 0 mm 2 m/s 672 mmHg 60%
    10:00 +29°C° 0 mm 2 m/s 672 mmHg 51%
    11:00 +30°C° 0 mm 3 m/s 672 mmHg 46%
    12:00 +31°C° 0 mm 3 m/s 671 mmHg 41%
    13:00 +34°C° 0 mm 3 m/s 670 mmHg 36%
    14:00 +33°C° 0 mm 3 m/s 670 mmHg 38%
    15:00 +33°C° 0 mm 3 m/s 669 mmHg 39%
    16:00 +33°C° 0 mm 3 m/s 669 mmHg 40%
    17:00 +29°C° 0 mm 2 m/s 669 mmHg 48%
    18:00 +27°C° 0 mm 2 m/s 669 mmHg 55%
    19:00 +24°C° 0 mm 2 m/s 669 mmHg 63%
    20:00 +24°C° 0,1 mm 2 m/s 670 mmHg 64%
    21:00 +23°C° 0,1 mm 2 m/s 670 mmHg 65%
    22:00 +23°C° 0,1 mm 2 m/s 670 mmHg 66%
    23:00 +21°C° 0 mm 2 m/s 670 mmHg 68%
    Arată mai mult